This is the latest recevied weather packets stored in our database for station/object DH0DM-13. If no packets are shown the sender has not sent any weather packets the latest 10 day(s).
| Time | Temp. | Humidity | Pressure | Rain* | Wind** | Luminosity | Snow |
|---|---|---|---|---|---|---|---|
| 1777802940 | 25.56° C | 29% | 988.3 hPa | 0 mm | 4.47 m/s, 79° | - | - |
| 1777802339 | 25.56° C | 30% | 988.5 hPa | 0 mm | 2.68 m/s, 248° | - | - |
| 1777801738 | 25.56° C | 32% | 988.7 hPa | 0 mm | 4.02 m/s, 333° | - | - |
| 1777801136 | 24.44° C | 31% | 988.6 hPa | 0 mm | 5.36 m/s, 48° | - | - |
| 1777800535 | 25° C | 32% | 988.5 hPa | 0 mm | 3.13 m/s, 82° | - | - |
| 1777799934 | 24.44° C | 32% | 988.8 hPa | 0 mm | 7.6 m/s, 274° | - | - |
| 1777799333 | 24.44° C | 32% | 988.5 hPa | 0 mm | 6.71 m/s, 96° | - | - |
| 1777798732 | 23.89° C | 33% | 988.7 hPa | 0 mm | 6.26 m/s, 84° | - | - |
| 1777798131 | 23.89° C | 35% | 988.7 hPa | 0 mm | 2.68 m/s, 304° | - | - |
| 1777797531 | 23.33° C | 34% | 988.7 hPa | 0 mm | 4.92 m/s, 127° | - | - |
| 1777796930 | 23.33° C | 34% | 988.8 hPa | 0 mm | 4.92 m/s, 211° | - | - |
| 1777796329 | 22.78° C | 35% | 988.8 hPa | 0 mm | 5.36 m/s, 80° | - | - |
| 1777795728 | 22.78° C | 35% | 988.8 hPa | 0 mm | 2.68 m/s, 167° | - | - |
| 1777794526 | 22.22° C | 35% | 988.9 hPa | 0 mm | 4.92 m/s, 174° | - | - |
| 1777793925 | 21.67° C | 37% | 988.8 hPa | 0 mm | 4.92 m/s, 235° | - | - |
| 1777793324 | 21.11° C | 36% | 988.7 hPa | 0 mm | 8.49 m/s, 186° | - | - |
| 1777792723 | 20.56° C | 37% | 988.9 hPa | 0 mm | 3.58 m/s, 342° | - | - |
| 1777792123 | 20° C | 38% | 988.7 hPa | 0 mm | 0.89 m/s, 106° | - | - |
| 1777791522 | 19.44° C | 40% | 989 hPa | 0 mm | 0.45 m/s, 254° | - | - |
| 1777790921 | 19.44° C | 39% | 988.8 hPa | 0 mm | 3.58 m/s, 204° | - | - |
| 1777790320 | 18.33° C | 40% | 989 hPa | 0 mm | 3.58 m/s, 184° | - | - |
| 1777789719 | 18.33° C | 40% | 988.8 hPa | 0 mm | 3.58 m/s, 188° | - | - |
| 1777789118 | 18.33° C | 41% | 988.7 hPa | 0 mm | 0.89 m/s, 204° | - | - |
| 1777788517 | 18.33° C | 41% | 988.8 hPa | 0 mm | 2.68 m/s, 212° | - | - |
| 1777787916 | 17.78° C | 41% | 989 hPa | 0 mm | 5.36 m/s, 226° | - | - |
* Rain since midnight (hover to see other rain measurements)
** Current wind speed in m/s (hover to see current wind gust speed)